Regional Weather Roundup
Issued by NWS

Home | Current Version | Previous Version | Graphics & Text | Print | Product List | Glossary On
Versions: 1 2 3 4 5 6 7 8 9 10 11 12 13 14 15 16 17 18 19 20 21 22 23 24 25 26 27 28 29 30 31 32 33 34 35 36 37 38 39 40 41 42 43 44 45 46 47 48 49 50
000
ASUS43 KMPX 270601
RWRMN
WEATHER ROUNDUP FOR MINNESOTA
NATIONAL WEATHER SERVICE TWIN CITIES/CHANHASSEN MN
1200 AM CST TUE JAN 27 2015


NOTE: "FAIR" INDICATES FEW OR NO CLOUDS BELOW 12,000 FEET WITH NO
SIGNIFICANT WEATHER AND/OR OBSTRUCTIONS TO VISIBILITY. N/A MEANS
CURRENT SKY AND/OR WEATHER CONDITIONS ARE NOT AVAILABLE.

MNZ060>063-068>070-270700-
   Twin Cities Metro

CITY           SKY/WX    TMP DP  RH WIND       PRES   REMARKS
TWIN CITIES    CLOUDY    36  27  69 N8        29.99R
6HR MIN TEMP:  36; 6HR MAX TEMP:  40;

ST PAUL        CLOUDY    36  28  73 N10       30.00R
CRYSTAL        CLOUDY    37  28  70 N6        29.98R
BLAINE         CLOUDY    37  30  75 N6        29.98R
LAKEVILLE      CLOUDY    34  28  80 NW8       29.98R WCI  27
EDEN PRAIRIE   CLOUDY    35  29  78 NW8       29.98R WCI  29
6HR MIN TEMP:  35; 6HR MAX TEMP:  40;

SOUTH ST PAUL  CLOUDY    37  28  72 N8        29.98R
LAKE ELMO      CLOUDY    36  30  80 NW5       29.99R
$$
MNZ001>005-007-008-013>017-022>024-027-028-270700-
   Northwest Minnesota

CITY           SKY/WX    TMP DP  RH WIND       PRES   REMARKS
BEMIDJI        CLOUDY    27  24  90 NW6       29.99R WCI  20
HALLOCK        CLOUDY    25  25 100 CALM      30.02S
ROSEAU         CLOUDY    23  19  86 CALM      30.02R FOG
WARROAD        CLOUDY    23  19  86 W3        30.02R
THIEF RVR FALL CLOUDY    27  25  93 CALM      30.02R
CROOKSTON      CLOUDY    27  27 100 CALM      30.05R
FOSSTON        CLOUDY    25  23  93 CALM      30.02R
DETROIT LAKES  CLOUDY    28  28 100 CALM      30.02R
MOORHEAD       CLOUDY    28  28 100 N5        30.04S WCI  23
PARK RAPIDS    CLOUDY    28  25  88 NW7       29.99R WCI  21
MAHNOMEN       CLOUDY    27  25  94 CALM      30.01R
$$
MNZ006-009>011-018-025>026-270700-
   North Central Minnesota

CITY           SKY/WX    TMP DP  RH WIND       PRES   REMARKS
BAUDETTE       CLOUDY    24  21  88 NW3       30.00R
FLAG ISLAND    CLOUDY    23  21  93 W6        30.00R WCI  16
INTL FALLS     CLOUDY    25  21  85 W3        29.99R
6HR MIN TEMP:  25; 6HR MAX TEMP:  27;

WASKISH        CLOUDY    27  25  93 CALM      30.00R
BIG FORK       CLOUDY    27  21  80 CALM      29.99R
LONGVILLE      CLOUDY    28  25  86 CALM      29.98S
GRAND RAPIDS   CLOUDY    28  21  74 NW10      29.98R WCI  19
CRANE LAKE     CLOUDY    21  21 100 CALM      30.01R
ORR            CLOUDY    25  19  80 CALM      29.96R
COOK           CLOUDY    25  21  86 CALM      29.98R
WALKER         CLOUDY    28  24  85 N5        29.98S WCI  23
$$
MNZ012-019>021-037-270700-
   Northeast Minnesota

CITY           SKY/WX    TMP DP  RH WIND       PRES   REMARKS
DULUTH         CLOUDY    27  22  81 N7        29.96R WCI  19
6HR MIN TEMP:  27; 6HR MAX TEMP:  31;

ELY            CLOUDY    21  19  93 CALM      29.97R
HIBBING        CLOUDY    27  21  78 N7        29.97R WCI  19
EVELETH        CLOUDY    27  21  80 NW7       29.97S WCI  19
DULUTH HARBOR  CLOUDY    30  27  86 N7        30.00R WCI  23
TWO HARBORS    CLOUDY    28  23  80 NW6       29.95R WCI  22
SILVER BAY     CLOUDY    27  21  80 N7        29.96R WCI  19
GRAND MARAIS     N/A     26  21  81 N5        30.00R WCI  20
G MARAIS ARPRT CLOUDY    16  12  86 N3        29.93R
$$
MNZ029>031-032-039>041-046>048-054>057-064-270700-
   West Central Minnesota

CITY           SKY/WX    TMP DP  RH WIND       PRES   REMARKS
FERGUS FALLS   CLOUDY    28  27  93 N3        30.05S
WHEATON        CLEAR     25  25 100 CALM      30.06R
MORRIS         CLEAR     28  27  93 N6        30.02R WCI  22
ALEXANDRIA     CLOUDY    29  26  89 N5        30.01R WCI  24
ELBOW LAKE     CLOUDY    28  27  96 N6        30.01S WCI  22
WADENA         CLOUDY    27  25  93 NW6       30.00R WCI  20
GLENWOOD       CLOUDY    28  27  93 NW6       30.02R WCI  22
APPLETON       CLEAR     30  28  93 W3        30.03S
BENSON         MOCLDY    27  25  93 NE5       30.03R WCI  21
ORTONVILLE     CLOUDY    30  27  86 NW3       30.04R FOG
MADISON        CLOUDY    34  34 100 N5        30.04R WCI  30
WILLMAR        CLOUDY    32  28  86 NW7       30.04R WCI  26
$$
MNZ033>034-036-042>043-049>051-058-059-270700-
   Central Minnesota

CITY           SKY/WX    TMP DP  RH WIND       PRES   REMARKS
ST CLOUD       CLOUDY    33  26  75 N7        30.00R WCI  27
6HR MIN TEMP:  33; 6HR MAX TEMP:  38;

SAUK CENTRE    CLOUDY    31  28  88 N6        30.02R WCI  25
PAYNESVILLE    CLOUDY    29  27  92 NW6       30.02R WCI  23
AITKIN         CLOUDY    34  25  69 NW5       29.98R WCI  30
PINE RIVER     CLOUDY    30  25  80 CALM      30.03R
BRAINERD       CLOUDY    31  25  78 N6        30.00R WCI  25
STAPLES        CLOUDY    28  25  86 NW3       30.00R
LONG PRAIRIE   CLOUDY    30  27  86 NW8       30.01R WCI  23
LITTLE FALLS   CLOUDY    32  27  80 N3        30.00R
LITCHFIELD     CLOUDY    34  30  86 N6        30.02R WCI  29
BUFFALO        CLOUDY    35  29  79 NW6       30.01R WCI  29
MAPLE LAKE     CLOUDY    35  31  84 N8        30.00R WCI  28
$$
MNZ037-044-045-052-053-270700-
   East Central Minnesota

CITY           SKY/WX    TMP DP  RH WIND       PRES   REMARKS
PRINCETON      CLOUDY    36  27  69 N7        30.00R
MORA           CLOUDY    32  25  74 N6        30.01R WCI  26
CAMBRIDGE      CLOUDY    36  25  64 NW6       29.98R
RUSH CITY      CLOUDY    33  27  80 N7        29.99R WCI  26
MOOSE LAKE     CLOUDY    30  25  80 N7        29.97R WCI  23
HINCKLEY       CLOUDY    32  27  80 N7        29.99R WCI  26
CLOQUET        CLOUDY    28  21  74 N9G16     29.97R WCI  20
MCGREGOR       CLOUDY    32  27  80 N8        29.99R WCI  25
$$
MNZ071>073-080-081-089-090-097-098-270700-
   Southwest Minnesota

CITY           SKY/WX    TMP DP  RH WIND       PRES   REMARKS
MONTEVIDEO     CLEAR     28  28 100 N3        30.04R
GRANITE FALLS  CLEAR     31  29  94 NW3       30.05R
CANBY          CLEAR     31  30  96 NW3       30.05R
MARSHALL       FAIR      30  28  93 N6        30.04R WCI  24
REDWOOD FALLS  CLOUDY    32  29  88 N6        30.03R WCI  26
OLIVIA         CLOUDY    30  28  93 N9        30.02R WCI  22
PIPESTONE      CLEAR     32  30  93 N3        30.01S
WINDOM         CLEAR     32  30  93 NW8       30.01R WCI  25
WORTHINGTON    CLEAR     30  27  86 NW8       30.02R WCI  23
JACKSON        MOCLDY    32  32 100 N6        30.01R WCI  26
TRACY          MOCLDY    32  32  98 NW5       30.03R WCI  28
SLAYTON        CLEAR     32  31  96 CALM      30.01S
$$
MNZ065>067-074>077-082>085-091>093-270700-
   South Central Minnesota

CITY           SKY/WX    TMP DP  RH WIND       PRES   REMARKS
MANKATO        CLOUDY    34  28  80 NW10      30.00R WCI  26
NEW ULM        CLEAR     30  28  93 NW7       30.02R WCI  23
ST JAMES       CLEAR     34  30  86 W8        30.03R WCI  27
FAIRMONT       CLEAR     34  25  69 NW8       30.00R WCI  27
GLENCOE        CLOUDY    34  32  91 W7        30.00R WCI  28
FARIBAULT      CLOUDY    36  30  80 NW8       29.98R
OWATONNA       CLOUDY    34  30  86 NW9       29.98R WCI  26
WASECA         CLOUDY    32  30  93 NW7       30.00R WCI  26
ALBERT LEA     CLOUDY    36  30  80 NW5       29.97R
$$
MNZ078>079-086>088-094>096-270700-
   Southeast Minnesota

CITY           SKY/WX    TMP DP  RH WIND       PRES   REMARKS
ROCHESTER      CLOUDY    34  30  85 NW10      29.95R WCI  26
6HR MIN TEMP:  34; 6HR MAX TEMP:  37;

RED WING       CLOUDY    37  28  70 N3        29.97R
STANTON        CLOUDY    36  31  83 NW9       29.97R
DODGE CENTER   CLOUDY    36  32  87 NW9       29.96R
WINONA         CLOUDY    32  28  86 CALM      29.97R
AUSTIN         CLOUDY    36  30  80 NW8       29.96R
PRESTON        CLOUDY    34  30  86 NW8       29.94R WCI  27
$$
ABBREVIATIONS USED IN REMARKS
   TC - TEMPERATURES IN CELSIUS
  WCI - WIND CHILL INDEX
   HX - HEAT INDEX
  VSB - VISIBILITY
$$


USA.gov is the U.S. government's official web portal to all federal, state and local government web resources and services.